GW1022 Weather Reports


time (UTC)temp
C
wind
direction
speed
KPH
gust
KPH
rain 1hr
cm
rain 24hr
cm
rain mn
cm
humidity
%
barometer
mb
20260507133037 8 51 0.0 1.6 0.00 0.00 0.00 85 1021.1
20260507131543 8 50 0.0 3.2 0.00 0.00 0.00 85 1021.0
20260507130058 8 63 0.0 0.0 0.00 0.00 0.00 86 1021.1
20260507124556 8 63 0.0 1.6 0.00 0.00 0.00 86 1021.0
20260507123101 8 63 0.0 0.0 0.00 0.00 0.00 86 1021.2
20260507121603 8 63 0.0 0.0 0.00 0.00 0.00 84 1021.3
20260507120007 9 63 0.0 0.0 0.00 0.00 0.00 85 1021.5
20260507114506 8 63 0.0 1.6 0.00 0.00 0.00 84 1021.6
20260507113029 8 63 0.0 0.0 0.00 0.00 0.00 83 1021.7
20260507111543 9 63 0.0 1.6 0.00 0.00 0.00 83 1021.7
20260507110052 9 53 0.0 1.6 0.00 0.00 0.00 82 1021.8
20260507104606 9 52 0.0 1.6 0.00 0.00 0.00 82 1021.8
20260507101511 9 72 0.0 1.6 0.00 0.00 0.00 83 1021.9
20260507100036 9 89 0.0 1.6 0.00 0.00 0.00 84 1021.9
20260507094543 9 88 0.0 1.6 0.00 0.00 0.00 82 1021.9
20260507093046 9 69 0.0 4.8 0.00 0.00 0.00 82 1021.9
20260507091558 9 72 0.0 4.8 0.00 0.00 0.00 82 1021.9
20260507090017 10 76 0.0 1.6 0.00 0.00 0.00 83 1021.7
20260507084536 10 76 0.0 6.4 0.00 0.00 0.00 83 1021.8
20260507083043 10 58 0.0 1.6 0.00 0.00 0.00 83 1021.9
20260507081549 10 77 0.0 3.2 0.00 0.00 0.00 82 1021.9
20260507080052 10 66 0.0 6.4 0.00 0.00 0.00 83 1021.9
20260507074557 10 71 1.6 4.8 0.00 0.00 0.00 83 1022.0
20260507073103 10 91 0.0 6.4 0.00 0.00 0.00 83 1021.9
20260507073008 10 91 0.0 6.4 0.00 0.00 0.00 83 1021.9
20260507071509 10 73 1.6 4.8 0.00 0.00 0.00 84 1021.9
20260507070025 10 46 0.0 9.7 0.00 0.00 0.00 84 1021.8
20260507064519 10 65 0.0 1.6 0.00 0.00 0.00 84 1021.7
20260507063030 10 76 0.0 4.8 0.00 0.00 0.00 84 1021.7
20260507061545 10 65 0.0 1.6 0.00 0.00 0.00 84 1021.7
20260507060012 11 59 0.0 4.8 0.00 0.00 0.00 84 1021.8
20260507054610 11 21 3.2 9.7 0.00 0.00 0.00 83 1021.9
20260507053003 11 64 1.6 8.0 0.00 0.00 0.00 84 1021.8
20260507051521 11 67 3.2 9.7 0.00 0.00 0.00 83 1021.8
20260507050026 11 44 0.0 3.2 0.00 0.00 0.00 84 1021.7
20260507044547 11 41 1.6 4.8 0.00 0.00 0.00 83 1021.8
20260507043043 11 78 1.6 11.3 0.00 0.00 0.00 83 1021.8
20260507041549 11 72 0.0 3.2 0.00 0.00 0.00 83 1021.7
20260507040059 11 51 0.0 1.6 0.00 0.00 0.00 83 1021.6
20260507034515 11 42 0.0 6.4 0.00 0.00 0.00 83 1021.5
20260507033028 12 75 0.0 3.2 0.00 0.00 0.00 83 1021.4
20260507031535 12 86 0.0 1.6 0.00 0.00 0.00 83 1021.2
20260507030039 12 72 0.0 1.6 0.00 0.00 0.00 83 1021.1
20260507024554 12 96 0.0 6.4 0.00 0.00 0.00 84 1021.2
20260507023059 12 147 0.0 0.0 0.00 0.00 0.00 85 1021.0
20260507021522 12 147 0.0 0.0 0.00 0.00 0.00 84 1021.0
20260507020041 12 147 0.0 0.0 0.00 0.00 0.00 83 1021.0
20260507014535 13 147 0.0 0.0 0.00 0.00 0.00 83 1021.0
20260507013057 13 147 0.0 0.0 0.00 0.00 0.00 82 1020.9
20260507011558 13 147 0.0 0.0 0.00 0.00 0.00 81 1020.9
20260507011504 13 147 0.0 0.0 0.00 0.00 0.00 81 1020.9
20260507010022 13 147 0.0 0.0 0.00 0.00 0.00 80 1020.9
20260507004538 14 74 0.0 0.0 0.00 0.00 0.00 78 1020.9
20260507003049 14 74 0.0 0.0 0.00 0.00 0.00 77 1020.9
20260507001549 14 74 0.0 0.0 0.00 0.00 0.00 77 1021.0
20260507000012 14 74 0.0 4.8 0.00 0.00 0.00 77 1021.0
20260506234509 13 68 0.0 6.4 0.00 0.00 0.00 78 1021.1
20260506233105 13 94 1.6 4.8 0.00 0.00 0.00 78 1021.0
20260506231506 13 77 1.6 8.0 0.00 0.00 0.00 80 1021.0
20260506230023 13 74 0.0 6.4 0.00 0.00 0.00 81 1021.1
20260506224542 13 70 0.0 9.7 0.00 0.00 0.00 83 1021.1
20260506223037 12 41 0.0 4.8 0.00 0.00 0.00 83 1021.3
20260506221544 12 75 0.0 6.4 0.00 0.00 0.00 84 1021.5
20260506220059 12 44 1.6 6.4 0.00 0.00 0.00 85 1021.5
20260506214509 12 60 4.8 8.0 0.00 0.00 0.00 86 1021.5
20260506213017 12 59 0.0 4.8 0.00 0.00 0.00 88 1021.5
20260506211533 12 79 0.0 8.0 0.00 0.00 0.00 89 1021.5
20260506210037 11 46 0.0 11.3 0.00 0.00 0.00 89 1021.5
20260506204541 11 84 0.0 1.6 0.00 0.00 0.00 91 1021.4
20260506203052 11 44 1.6 3.2 0.00 0.00 0.00 91 1021.4
20260506201553 11 40 0.0 1.6 0.00 0.00 0.00 92 1021.3
20260506200101 11 291 0.0 6.4 0.00 0.00 0.00 92 1021.3
20260506194515 11 60 3.2 6.4 0.00 0.00 0.00 92 1021.3
20260506193026 11 80 0.0 3.2 0.00 0.00 0.00 93 1021.2
20260506191536 11 4 0.0 4.8 0.00 0.00 0.00 93 1021.3
20260506190049 11 51 0.0 1.6 0.00 0.00 0.00 93 1021.2
20260506184502 10 71 0.0 3.2 0.00 0.00 0.00 94 1020.9
20260506183025 10 91 0.0 6.4 0.00 0.00 0.00 94 1021.0
20260506181534 10 65 0.0 3.2 0.00 0.00 0.00 94 1021.0
20260506180036 10 304 0.0 3.2 0.00 0.00 0.00 95 1021.0
20260506174541 10 89 1.6 8.0 0.00 0.00 0.00 95 1021.1
20260506173050 10 88 0.0 3.2 0.00 0.00 0.00 95 1020.9
20260506171556 10 86 1.6 3.2 0.00 0.00 0.00 95 1020.7
20260506164600 10 75 0.0 1.6 0.00 0.00 0.00 95 1020.5
20260506163107 10 57 0.0 3.2 0.00 0.00 0.00 95 1020.4
20260506161517 10 92 0.0 1.6 0.00 0.00 0.00 95 1020.7
20260506160030 10 77 0.0 1.6 0.00 0.00 0.00 95 1020.4
20260506154535 10 77 0.0 3.2 0.00 0.00 0.00 95 1020.3
20260506153050 10 34 0.0 3.2 0.00 0.00 0.00 95 1020.5
20260506151559 10 57 0.0 1.6 0.00 0.00 0.00 95 1020.3
20260506150003 10 57 0.0 0.0 0.00 0.00 0.00 95 1019.9
20260506144529 10 58 0.0 0.0 0.00 0.00 0.00 95 1019.7
20260506143033 10 58 0.0 3.2 0.00 0.00 0.00 95 1020.1
20260506141604 10 51 0.0 4.8 0.00 0.00 0.00 95 1020.0
20260506140114 10 68 0.0 1.6 0.00 0.00 0.00 95 1020.1
20260506134602 10 63 0.0 1.6 0.00 0.00 0.00 95 1019.9